This demonstration page uses our WeatherBlox Daily Observations layout. Learn more.

Left ArrowRight Arrow

53.62937, 11.41316

Hourly Observations for December 19, 2019

Temp ( °F °C ) Dew Point ( °F °C ) Humidity (%) Winds ( mph kmh ) Pressure ( in mb ) Visibility ( mi km ) Precip ( " mm )
6:50 am 06:50 Mostly Clear 41 5 39 4 93 93 SE 6 9 30.00 1016 6 9 N/A
7:20 am 07:20 Mostly Clear 41 5 39 4 93 93 SSE 7 11 30.00 1016 5 8 N/A
7:50 am 07:50 Mostly Clear 41 5 39 4 93 93 SSE 9 15 30.00 1016 30 48 N/A
8:20 am 08:20 Mostly Clear 41 5 39 4 93 93 SSE 10 17 29.98 1015 6 9 N/A
8:50 am 08:50 Mostly Sunny 41 5 39 4 93 93 SE 8 13 29.98 1015 6 9 N/A
9:20 am 09:20 Mostly Sunny 41 5 39 4 93 93 SSE 7 11 29.98 1015 6 9 N/A
9:50 am 09:50 Mostly Sunny 41 5 39 4 93 93 SSE 8 13 29.98 1015 30 48 N/A
10:20 am 10:20 Mostly Sunny 43 6 41 5 93 93 SSE 7 11 29.97 1015 7 11 N/A
10:50 am 10:50 Mostly Sunny 43 6 41 5 93 93 SSE 10 17 29.97 1015 7 11 N/A
11:20 am 11:20 Mostly Sunny 45 7 41 5 87 87 SSE 9 15 29.95 1014 7 11 N/A
11:50 am 11:50 Mostly Sunny 46 8 41 5 82 82 SSE 8 13 29.94 1014 7 11 N/A
12:20 pm 12:20 Mostly Sunny 48 9 43 6 82 82 S 7 11 29.92 1013 7 11 N/A
12:50 pm 12:50 Mostly Sunny 48 9 43 6 82 82 S 7 11 29.92 1013 7 11 N/A
1:20 pm 13:20 Mostly Sunny 48 9 43 6 82 82 SSE 7 11 29.89 1012 7 11 N/A
1:50 pm 13:50 Mostly Sunny 48 9 43 6 82 82 SSE 6 9 29.89 1012 7 11 N/A
2:20 pm 14:20 Mostly Sunny 48 9 43 6 82 82 SSE 7 11 29.89 1012 7 11 N/A
2:50 pm 14:50 Mostly Sunny 48 9 43 6 82 82 SSE 6 9 29.86 1011 7 11 N/A
3:20 pm 15:20 Mostly Sunny 48 9 43 6 82 82 SSE 7 11 29.86 1011 7 11 N/A
3:50 pm 15:50 Mostly Sunny 48 9 43 6 82 82 SSE 6 9 29.86 1011 7 11 N/A
4:20 pm 16:20 Mostly Clear 46 8 41 5 82 82 SE 7 11 29.83 1010 7 11 N/A
4:50 pm 16:50 Mostly Clear 46 8 41 5 82 82 SE 6 9 29.83 1010 7 11 N/A
5:20 pm 17:20 Mostly Clear 46 8 41 5 82 82 SSE 5 7 29.83 1010 7 11 N/A
5:50 pm 17:50 Mostly Clear 46 8 41 5 82 82 SE 7 11 29.83 1010 7 11 N/A
6:20 pm 18:20 Mostly Clear 46 8 41 5 82 82 SSE 5 7 29.83 1010 7 11 N/A
6:50 pm 18:50 Mostly Clear 45 7 41 5 87 87 SSE 5 7 29.80 1009 7 11 N/A
7:20 pm 19:20 Mostly Clear 45 7 41 5 87 87 SE 6 9 29.80 1009 7 11 N/A
7:50 pm 19:50 Mostly Clear 45 7 41 5 87 87 SSE 5 7 29.77 1008 7 11 N/A

Powered by AerisWeather